GW5621 Weather Reports


time (UTC)temp
F
wind
direction
speed
knots
gust
knots
rain 1hr
in
rain 24hr
in
rain mn
in
humidity
%
barometer
mb
20260506221549 63 282 0.9 3.5 0.00 0.44 0.44 91 1007.4
20260506220045 63 326 0.9 4.3 0.00 0.44 0.44 91 1007.3
20260506214536 63 254 0.9 4.3 0.00 0.44 0.44 92 1007.2
20260506213042 62 316 0.9 3.5 0.00 0.44 0.44 93 1007.0
20260506211550 62 297 0.0 2.6 0.00 0.44 0.44 93 1006.8
20260506210038 61 275 0.9 4.3 0.00 0.44 0.44 93 1006.8
20260506204539 61 221 0.0 3.5 0.00 0.44 0.44 94 1006.8
20260506203047 61 286 0.9 6.1 0.00 0.44 0.44 94 1006.8
20260506201545 60 321 0.9 7.8 0.00 0.44 0.44 94 1006.7
20260506200042 60 302 0.9 5.2 0.00 0.44 0.44 94 1006.8
20260506194538 60 319 0.0 3.5 0.00 0.44 0.44 94 1006.9
20260506193035 60 312 0.0 3.5 0.01 0.44 0.44 94 1006.9
20260506191543 60 212 0.0 2.6 0.03 0.44 0.44 94 1007.0
20260506190043 59 247 0.0 2.6 0.05 0.44 0.44 94 1007.2
20260506184541 59 178 0.0 3.5 0.08 0.44 0.44 94 1007.3
20260506183041 59 0 0.9 2.6 0.09 0.43 0.43 93 1007.6
20260506181558 59 0 0.9 3.5 0.10 0.41 0.41 93 1007.7
20260506180044 59 281 0.0 2.6 0.10 0.39 0.39 93 1007.7
20260506174542 59 0 0.0 4.3 0.11 0.36 0.36 93 1007.9
20260506173054 59 297 0.9 4.3 0.10 0.34 0.34 93 1007.8
20260506171537 59 0 0.9 6.1 0.08 0.31 0.31 93 1007.8
20260506170055 59 170 0.9 2.6 0.07 0.29 0.29 93 1007.9
20260506164544 59 124 0.0 3.5 0.05 0.25 0.25 93 1008.0
20260506163042 59 0 0.9 5.2 0.07 0.24 0.24 92 1008.1
20260506161543 59 224 0.0 4.3 0.10 0.23 0.23 92 1008.1
20260506160041 60 0 1.7 4.3 0.10 0.22 0.22 92 1008.1
20260506154535 60 169 1.7 6.1 0.10 0.20 0.20 92 1008.0
20260506153043 60 168 0.0 3.5 0.09 0.17 0.17 91 1008.8
20260506151545 60 134 0.9 3.5 0.07 0.13 0.13 91 1009.2
20260506150049 60 110 0.9 3.5 0.07 0.12 0.12 91 1008.8
20260506144543 60 167 0.0 2.6 0.06 0.10 0.10 91 1008.6
20260506143036 60 0 0.0 3.5 0.04 0.07 0.07 90 1008.7
20260506141537 60 0 0.0 0.0 0.04 0.06 0.06 90 1009.2
20260506140043 60 310 0.0 2.6 0.03 0.05 0.05 89 1009.0
20260506134547 60 0 0.0 1.7 0.03 0.04 0.04 88 1009.0
20260506133037 61 217 0.0 2.6 0.03 0.03 0.03 87 1009.2
20260506131557 61 0 0.0 2.6 0.02 0.02 0.02 86 1009.2
20260506130052 61 259 0.9 7.8 0.02 0.02 0.02 84 1009.3
20260506124543 62 266 0.9 7.0 0.01 0.01 0.01 82 1009.3
20260506123043 63 188 0.0 2.6 0.00 0.00 0.00 81 1008.9
20260506121539 63 237 0.0 2.6 0.00 0.00 0.00 81 1008.8
20260506120036 63 0 0.0 2.6 0.00 0.00 0.00 80 1008.8
20260506114535 63 0 0.0 2.6 0.00 0.00 0.00 77 1008.9
20260506113042 63 139 0.9 4.3 0.00 0.00 0.00 77 1008.8
20260506111543 64 129 0.0 4.3 0.00 0.00 0.00 76 1008.9
20260506110038 64 293 0.9 2.6 0.00 0.00 0.00 76 1008.7
20260506104536 63 0 0.0 1.7 0.00 0.00 0.00 76 1008.5
20260506103044 63 309 0.0 7.0 0.00 0.00 0.00 75 1008.3
20260506101536 62 0 0.0 2.6 0.00 0.00 0.00 75 1008.3
20260506100042 62 0 0.0 2.6 0.00 0.00 0.00 74 1008.2
20260506094549 62 204 0.0 1.7 0.00 0.01 0.00 74 1008.5
20260506093039 63 93 0.9 2.6 0.00 0.01 0.00 73 1008.4
20260506091537 62 0 0.0 0.0 0.00 0.01 0.00 72 1008.4
20260506090035 62 0 0.0 2.6 0.00 0.01 0.00 72 1008.4
20260506084539 61 0 0.0 0.9 0.00 0.08 0.00 72 1008.6
20260506083039 61 0 0.0 0.9 0.00 0.08 0.00 72 1008.7
20260506081537 60 0 0.0 1.7 0.00 0.08 0.00 73 1008.6
20260506073043 60 0 0.0 0.0 0.00 0.08 0.00 72 1008.7
20260506071545 60 0 0.0 0.0 0.00 0.08 0.00 71 1008.8
20260506061545 62 0 0.0 0.9 0.00 0.08 0.00 68 1009.1
20260506044536 64 100 0.0 2.6 0.00 0.08 0.00 63 1009.8
20260506043035 62 65 0.0 1.7 0.00 0.08 0.00 65 1009.7
20260506041537 63 0 0.9 1.7 0.00 0.08 0.00 64 1009.7
20260506040037 63 46 0.0 1.7 0.00 0.08 0.00 62 1009.8
20260506034543 64 0 0.0 1.7 0.00 0.08 0.08 59 1009.7
20260506033039 65 51 0.0 1.7 0.00 0.08 0.08 58 1009.7
20260506031536 65 0 0.0 1.7 0.00 0.08 0.08 58 1009.7
20260506030044 65 31 0.0 1.7 0.00 0.08 0.08 57 1009.6
20260506024553 67 6 0.0 0.9 0.00 0.08 0.08 54 1009.6
20260506023041 68 194 0.0 2.6 0.00 0.08 0.08 52 1009.7
20260506021548 69 0 0.0 3.5 0.00 0.08 0.08 50 1009.7
20260506020042 69 322 0.9 3.5 0.00 0.08 0.08 50 1009.6
20260506014538 70 76 0.0 2.6 0.00 0.08 0.08 49 1009.6
20260506013043 70 197 0.0 2.6 0.00 0.08 0.08 47 1009.3
20260506011540 71 220 0.9 3.5 0.00 0.08 0.08 47 1009.2
20260506010038 71 222 0.9 3.5 0.00 0.08 0.08 46 1008.9
20260506004543 72 236 0.9 6.1 0.00 0.08 0.08 46 1008.8
20260506003042 72 283 0.0 6.1 0.00 0.08 0.08 45 1008.7
20260506001542 73 245 0.9 8.7 0.00 0.08 0.08 43 1008.5
20260506000040 73 352 0.9 6.1 0.00 0.08 0.08 43 1008.3
20260505234538 74 138 0.9 6.1 0.00 0.08 0.08 41 1008.3
20260505233035 75 168 0.9 2.6 0.00 0.08 0.08 41 1008.2
20260505231552 76 137 2.6 7.8 0.00 0.08 0.08 40 1008.1
20260505230051 76 241 1.7 9.6 0.00 0.08 0.08 39 1007.9
20260505224537 77 0 1.7 8.7 0.00 0.08 0.08 39 1007.9
20260505223044 78 172 1.7 11.3 0.00 0.08 0.08 39 1007.7